CW9825 Weather Reports


time (UTC)temp
F
wind
direction
speed
knots
gust
knots
rain 1hr
in
rain 24hr
in
rain mn
in
humidity
%
barometer
mb
20260901054053 66 286 2.6 7.8 0.00 0.30 0.00 74 1013.0
20260901053553 66 277 2.6 6.1 0.00 0.30 0.00 75 1012.9
20260901053057 66 268 2.6 5.2 0.00 0.30 0.00 76 1012.9
20260901052550 66 225 0.0 4.3 0.00 0.30 0.00 75 1012.4
20260901052049 66 211 1.7 4.3 0.00 0.30 0.00 75 1012.2
20260901051553 67 205 1.7 4.3 0.00 0.30 0.00 74 1012.2
20260901051048 67 197 1.7 4.3 0.00 0.30 0.00 73 1012.2
20260901050546 67 209 1.7 4.3 0.00 0.30 0.00 73 1012.1
20260901050045 67 199 1.7 4.3 0.00 0.30 0.00 72 1012.1
20260901045543 67 228 1.7 4.3 0.00 0.30 0.30 71 1012.0
20260901045044 68 234 1.7 5.2 0.00 0.30 0.30 71 1012.1
20260901044544 68 192 2.6 5.2 0.00 0.30 0.30 70 1012.1
20260901044044 68 213 2.6 6.1 0.00 0.30 0.30 70 1012.1
20260901043544 68 212 2.6 7.0 0.00 0.30 0.30 69 1012.0
20260901043046 69 221 2.6 7.0 0.00 0.30 0.30 68 1012.0
20260901042544 69 206 2.6 5.2 0.00 0.30 0.30 67 1012.0
20260901042043 70 211 2.6 5.2 0.00 0.30 0.30 67 1011.9
20260901041543 70 192 2.6 5.2 0.00 0.30 0.30 66 1011.9
20260901041043 70 184 1.7 5.2 0.00 0.30 0.30 66 1011.9
20260901040543 70 244 2.6 5.2 0.00 0.30 0.30 66 1011.9
20260901040042 70 190 0.9 5.2 0.00 0.30 0.30 65 1011.9
20260901035542 70 223 1.7 6.1 0.00 0.30 0.30 65 1011.9
20260901035043 70 217 2.6 6.1 0.00 0.30 0.30 65 1011.8
20260901034548 70 197 3.5 5.2 0.00 0.30 0.30 64 1011.9
20260901034041 71 194 2.6 5.2 0.00 0.30 0.30 63 1011.9
20260901033541 71 185 2.6 5.2 0.00 0.30 0.30 63 1011.8
20260901033044 71 219 1.7 5.2 0.00 0.30 0.30 62 1012.3
20260901032541 72 202 2.6 6.1 0.00 0.30 0.30 61 1011.9
20260901032040 72 202 2.6 7.0 0.00 0.30 0.30 61 1011.8
20260901031547 72 189 3.5 7.0 0.00 0.30 0.30 60 1011.9
20260901031041 73 197 2.6 6.1 0.00 0.30 0.30 59 1011.9
20260901030542 73 191 2.6 5.2 0.00 0.30 0.30 59 1011.8
20260901030041 73 194 2.6 5.2 0.00 0.30 0.30 58 1011.8
20260901025540 74 225 2.6 6.1 0.00 0.30 0.30 57 1011.9
20260901025040 74 215 0.9 6.1 0.00 0.30 0.30 57 1011.9
20260901024540 74 221 0.9 5.2 0.00 0.30 0.30 56 1011.9
20260901024044 74 230 2.6 5.2 0.00 0.30 0.30 55 1011.9
20260901023539 74 236 1.7 4.3 0.00 0.30 0.30 55 1011.8
20260901023041 74 229 0.0 2.6 0.00 0.30 0.30 54 1011.8
20260901022539 74 257 0.0 5.2 0.00 0.30 0.30 53 1011.7
20260901022039 75 190 2.6 7.8 0.00 0.30 0.30 52 1011.5
20260901021550 75 244 2.6 7.8 0.00 0.30 0.30 51 1011.5
20260901021042 75 197 2.6 6.1 0.00 0.30 0.30 49 1011.4
20260901020539 75 188 2.6 6.1 0.00 0.30 0.30 48 1011.3
20260901020038 76 200 2.6 6.1 0.00 0.30 0.30 47 1011.2
20260901015539 76 197 3.5 7.0 0.00 0.30 0.30 46 1011.1
20260901015038 77 177 3.5 7.0 0.00 0.30 0.30 46 1011.1
20260901014539 78 205 2.6 5.2 0.00 0.30 0.30 45 1011.0
20260901014037 78 191 2.6 5.2 0.00 0.30 0.30 44 1010.9
20260901013537 78 199 1.7 4.3 0.00 0.30 0.30 43 1010.8
20260901013055 79 223 1.7 6.1 0.00 0.30 0.30 43 1010.9
20260901012536 79 190 1.7 6.1 0.00 0.30 0.30 42 1010.8
20260901012040 79 216 3.5 7.0 0.00 0.30 0.30 42 1010.7
20260901011537 80 229 1.7 7.0 0.00 0.30 0.30 41 1010.7
20260901011036 80 213 2.6 6.1 0.00 0.30 0.30 41 1010.6
20260901010536 80 213 2.6 7.0 0.00 0.30 0.30 40 1010.7
20260901010047 81 211 1.7 6.1 0.00 0.30 0.30 39 1010.7
20260901005536 81 207 2.6 7.8 0.00 0.30 0.30 39 1010.6
20260901005035 81 222 1.7 7.8 0.00 0.30 0.30 39 1010.5
20260901004538 82 194 1.7 7.8 0.00 0.30 0.30 38 1010.6
20260901004035 82 199 2.6 8.7 0.00 0.30 0.30 38 1010.6
20260901003539 82 213 3.5 8.7 0.00 0.30 0.30 37 1010.6
20260901003035 82 216 2.6 11.3 0.00 0.30 0.30 37 1010.6
20260901002535 83 256 3.5 14.8 0.00 0.30 0.30 37 1010.5
20260901002035 83 184 4.3 14.8 0.00 0.30 0.30 36 1010.4
20260901001536 83 185 2.6 10.4 0.00 0.30 0.30 36 1010.4
20260901001034 83 217 3.5 10.4 0.00 0.30 0.30 36 1010.3
20260901000534 83 335 4.3 9.6 0.00 0.30 0.30 35 1010.3
20260901000034 84 227 3.5 11.3 0.00 0.30 0.30 35 1010.4
20260831235534 84 213 4.3 14.8 0.00 0.30 0.30 35 1010.4
20260831235035 84 198 5.2 14.8 0.00 0.30 0.30 35 1010.3
20260831234534 84 208 4.3 12.2 0.00 0.30 0.30 35 1010.3
20260831234035 84 329 5.2 12.2 0.00 0.30 0.30 34 1010.3
20260831233533 84 346 3.5 13.0 0.00 0.30 0.30 35 1010.3
20260831233032 84 209 2.6 9.6 0.00 0.30 0.30 35 1010.3
20260831232534 84 283 3.5 13.0 0.00 0.30 0.30 34 1010.4
20260831232034 85 213 5.2 16.5 0.00 0.30 0.30 33 1010.4
20260831231533 85 246 6.1 16.5 0.00 0.30 0.30 33 1010.5
20260831231034 85 211 2.6 13.0 0.00 0.30 0.30 34 1010.5
20260831230533 85 238 6.1 13.0 0.00 0.30 0.30 33 1010.5
20260831230036 85 284 5.2 11.3 0.00 0.30 0.30 34 1010.4
20260831225533 85 232 3.5 13.0 0.00 0.30 0.30 33 1010.4
20260831225035 85 236 4.3 15.6 0.00 0.30 0.30 33 1010.4
20260831224532 85 349 7.8 17.4 0.00 0.30 0.30 32 1010.5
20260831224033 85 193 3.5 15.6 0.00 0.30 0.30 33 1010.4
20260831223535 85 314 3.5 15.6 0.00 0.30 0.30 33 1010.4
20260831223038 85 144 6.1 15.6 0.00 0.30 0.30 32 1010.3
20260831222531 85 192 4.3 13.0 0.00 0.30 0.30 34 1010.2
20260831222031 85 26 2.6 13.0 0.00 0.30 0.30 34 1010.1
20260831221532 85 198 4.3 12.2 0.00 0.30 0.30 35 1010.1
20260831221032 85 282 6.1 18.2 0.00 0.30 0.30 33 1010.0
20260831220530 85 207 4.3 19.1 0.00 0.30 0.30 34 1010.0
20260831220030 86 223 6.1 14.8 0.00 0.30 0.30 34 1010.0
20260831215532 86 200 4.3 10.4 0.00 0.30 0.30 34 1010.1
20260831215030 86 190 3.5 10.4 0.00 0.30 0.30 34 1010.0
20260831214532 85 229 4.3 12.2 0.00 0.30 0.30 34 1010.0
20260831214029 85 261 2.6 10.4 0.00 0.30 0.30 34 1010.1
20260831213529 86 183 2.6 14.8 0.00 0.30 0.30 34 1010.2
20260831213038 86 196 6.1 14.8 0.00 0.30 0.30 33 1010.2
20260831212529 86 238 4.3 13.0 0.00 0.30 0.30 35 1010.1
20260831212028 86 201 3.5 12.2 0.00 0.30 0.30 33 1010.2
20260831211529 85 229 3.5 13.0 0.00 0.30 0.30 33 1010.2
20260831211031 85 63 6.1 13.9 0.00 0.30 0.30 33 1010.2
20260831210531 85 252 7.0 13.9 0.00 0.30 0.30 33 1010.3
20260831210027 85 260 5.2 13.0 0.00 0.30 0.30 33 1010.4
20260831205528 85 178 4.3 13.0 0.00 0.30 0.30 33 1010.4
20260831205028 85 200 4.3 12.2 0.00 0.30 0.30 32 1010.4
20260831204530 85 250 3.5 12.2 0.00 0.30 0.30 32 1010.3
20260831204027 86 271 5.2 10.4 0.00 0.30 0.30 31 1010.5
20260831203527 86 172 3.5 13.0 0.00 0.30 0.30 33 1010.6
20260831203026 87 323 6.1 15.6 0.00 0.30 0.30 32 1010.5
20260831202525 86 269 5.2 15.6 0.00 0.30 0.30 32 1010.6
20260831202028 86 254 2.6 20.9 0.00 0.30 0.30 33 1010.7
20260831201534 86 269 4.3 20.9 0.00 0.30 0.30 32 1010.7
20260831201028 86 165 6.1 12.2 0.00 0.30 0.30 30 1010.7
20260831200524 86 323 3.5 12.2 0.00 0.30 0.30 33 1010.8
20260831200024 86 312 4.3 12.2 0.00 0.30 0.30 32 1010.8
20260831195525 86 188 7.0 13.0 0.00 0.30 0.30 31 1010.9
20260831195027 86 355 3.5 13.0 0.00 0.30 0.30 33 1011.0
20260831194538 85 273 3.5 14.8 0.00 0.30 0.30 33 1010.9
20260831194024 85 277 6.1 14.8 0.00 0.30 0.30 32 1011.0
20260831193523 86 195 5.2 12.2 0.00 0.30 0.30 31 1011.1
20260831193024 85 267 2.6 13.9 0.00 0.30 0.30 34 1011.2
20260831192522 85 202 4.3 13.9 0.00 0.30 0.30 33 1011.2
20260831192023 85 202 4.3 13.0 0.00 0.30 0.30 35 1011.3
20260831191520 85 271 5.2 13.0 0.00 0.30 0.30 35 1011.1
20260831191022 85 234 3.5 10.4 0.00 0.30 0.30 35 1011.3
20260831190518 84 248 4.3 12.2 0.00 0.30 0.30 36 1011.4
20260831190019 83 214 4.3 12.2 0.00 0.30 0.30 39 1011.4
20260831185517 83 188 5.2 9.6 0.00 0.30 0.30 39 1011.5
20260831185016 84 238 4.3 9.6 0.00 0.30 0.30 41 1011.5
20260831184516 83 181 1.7 7.0 0.00 0.30 0.30 44 1011.6
20260831184013 83 202 1.7 7.0 0.00 0.30 0.30 44 1011.5
20260831183513 83 185 2.6 7.0 0.00 0.30 0.30 44 1011.7
20260831183012 83 219 2.6 7.8 0.00 0.30 0.30 45 1011.7
20260831182511 82 276 3.5 8.7 0.00 0.30 0.30 45 1011.7
20260831182010 82 277 4.3 8.7 0.00 0.30 0.30 47 1011.7
20260831181510 82 213 2.6 7.0 0.00 0.30 0.30 47 1011.8
20260831181009 81 206 2.6 7.8 0.00 0.30 0.30 46 1011.8
20260831180507 82 204 1.7 9.6 0.00 0.30 0.30 49 1012.0
20260831180006 81 279 3.5 9.6 0.00 0.30 0.30 48 1012.1
20260831175505 81 246 5.2 9.6 0.00 0.30 0.30 52 1012.1
20260831175003 80 281 1.7 7.8 0.00 0.30 0.30 49 1012.2
20260831174502 80 266 2.6 7.0 0.00 0.30 0.30 54 1012.2
20260831174004 80 245 0.9 8.7 0.00 0.30 0.30 54 1012.2
20260831173501 80 313 5.2 8.7 0.00 0.30 0.30 54 1012.2
20260831173100 79 223 2.6 9.6 0.00 0.30 0.30 55 1012.3
20260831172558 79 297 4.3 9.6 0.00 0.30 0.30 56 1012.4
20260831172057 78 299 2.6 7.0 0.00 0.30 0.30 56 1012.4
20260831171559 78 256 0.9 7.8 0.00 0.30 0.30 58 1012.5
20260831171055 78 261 1.7 7.8 0.00 0.30 0.30 60 1012.4
20260831170554 78 300 0.9 6.1 0.00 0.30 0.30 59 1012.4
20260831170052 77 211 1.7 8.7 0.00 0.30 0.30 58 1012.4
20260831165552 77 285 3.5 7.8 0.00 0.30 0.30 58 1012.3
20260831165051 77 230 2.6 7.8 0.00 0.30 0.30 58 1012.2
20260831164550 78 274 1.7 7.0 0.00 0.30 0.30 59 1012.3
20260831164048 77 243 1.7 5.2 0.00 0.30 0.30 59 1012.3
20260831163547 77 297 1.7 7.0 0.00 0.30 0.30 61 1012.3
20260831163046 77 276 1.7 7.0 0.00 0.30 0.30 60 1012.2
20260831162545 76 239 2.6 7.0 0.00 0.30 0.30 60 1012.3
20260831162048 76 241 2.6 8.7 0.00 0.30 0.30 59 1012.3
20260831161548 76 186 3.5 8.7 0.00 0.30 0.30 62 1012.3
20260831161042 76 254 0.9 3.5 0.00 0.30 0.30 63 1012.1
20260831160539 75 166 0.0 3.5 0.00 0.30 0.30 69 1012.2
20260831160039 74 220 0.9 5.2 0.00 0.30 0.30 63 1012.4
20260831155537 74 225 1.7 5.2 0.00 0.30 0.30 65 1012.5
20260831155036 74 237 0.0 4.3 0.00 0.30 0.30 66 1012.5
20260831154540 73 229 1.7 5.2 0.00 0.30 0.30 67 1012.5
20260831154033 72 285 2.6 5.2 0.00 0.30 0.30 70 1012.5
20260831153535 72 239 0.9 4.3 0.00 0.30 0.30 72 1012.4
20260831153036 72 223 1.7 4.3 0.00 0.30 0.30 72 1012.4
20260831152528 72 267 1.7 4.3 0.00 0.30 0.30 71 1012.4
20260831152027 71 279 0.9 7.0 0.00 0.30 0.30 73 1012.2
20260831151526 71 286 1.7 7.0 0.00 0.30 0.30 73 1012.2
20260831151025 70 228 2.6 7.0 0.00 0.30 0.30 73 1012.3
20260831150523 70 221 1.7 5.2 0.00 0.30 0.30 75 1012.3
20260831150022 70 209 0.9 5.2 0.00 0.30 0.30 76 1012.4
20260831145521 69 283 1.7 5.2 0.00 0.30 0.30 76 1012.4
20260831145020 69 304 1.7 7.0 0.00 0.30 0.30 77 1012.3
20260831144517 69 271 0.9 7.0 0.00 0.30 0.30 78 1012.3
20260831144015 68 274 0.9 7.0 0.00 0.30 0.30 78 1012.4
20260831143519 68 240 0.9 7.8 0.00 0.30 0.30 80 1012.4
20260831143012 67 261 3.5 7.8 0.00 0.30 0.30 81 1012.3
20260831142512 67 285 1.7 7.8 0.00 0.30 0.30 82 1012.2
20260831142011 66 252 1.7 7.8 0.00 0.30 0.30 83 1012.2
20260831141507 66 273 0.9 6.1 0.00 0.30 0.30 84 1012.1
20260831141005 65 247 1.7 3.5 0.00 0.30 0.30 85 1011.9
20260831140505 65 250 0.0 5.2 0.00 0.30 0.30 85 1011.7
20260831140007 65 247 1.7 7.8 0.00 0.30 0.30 85 1011.6
20260831135503 64 292 0.0 7.8 0.00 0.30 0.30 86 1011.4
20260831135003 64 259 1.7 7.0 0.00 0.30 0.30 87 1011.3
20260831134502 64 250 0.0 3.5 0.00 0.30 0.30 87 1011.2
20260831134001 64 240 0.0 7.0 0.00 0.30 0.30 88 1011.1
20260831133500 64 274 2.6 7.0 0.00 0.30 0.30 89 1011.0
20260831133103 64 278 0.0 7.0 0.00 0.30 0.30 89 1011.0
20260831132559 63 254 1.7 7.0 0.00 0.30 0.30 90 1010.8
20260831132058 63 276 3.5 7.0 0.00 0.30 0.30 90 1010.7
20260831131604 63 278 0.9 7.0 0.00 0.30 0.30 91 1010.7
20260831131057 63 271 3.5 7.0 0.00 0.30 0.30 91 1010.6
20260831130557 63 276 1.7 6.1 0.00 0.30 0.30 92 1010.5
20260831130104 63 278 2.6 7.8 0.00 0.30 0.30 92 1010.6
20260831125556 63 266 4.3 7.8 0.00 0.30 0.30 92 1010.5
20260831125056 63 273 3.5 8.7 0.00 0.30 0.30 92 1010.5
20260831124602 63 260 1.7 8.7 0.00 0.30 0.30 93 1010.4
20260831124055 62 285 1.7 8.7 0.00 0.30 0.30 93 1010.4
20260831123553 62 255 2.6 7.8 0.00 0.30 0.30 93 1010.4
20260831123055 62 246 3.5 7.8 0.00 0.30 0.30 93 1010.2
20260831122550 62 282 2.6 7.0 0.00 0.30 0.30 94 1010.1
20260831122049 62 272 1.7 7.0 0.00 0.30 0.30 94 1009.9
20260831121550 62 286 2.6 9.6 0.00 0.30 0.30 94 1010.0
20260831121048 62 295 4.3 9.6 0.00 0.30 0.30 94 1010.0
20260831120549 63 259 4.3 9.6 0.00 0.30 0.30 94 1009.9
20260831120046 63 287 4.3 9.6 0.00 0.30 0.30 94 1009.8
20260831115544 63 241 5.2 9.6 0.00 0.30 0.30 94 1009.8
20260831115043 63 284 4.3 9.6 0.00 0.30 0.30 94 1009.6
20260831114551 63 255 5.2 9.6 0.00 0.30 0.30 94 1009.6
20260831114041 63 276 5.2 9.6 0.00 0.30 0.30 94 1009.4
20260831113540 63 271 3.5 9.6 0.00 0.30 0.30 94 1009.4
20260831113041 63 253 5.2 9.6 0.00 0.30 0.30 94 1009.3
20260831112538 64 274 5.2 10.4 0.00 0.30 0.30 93 1009.2
20260831112036 64 265 4.3 10.4 0.00 0.30 0.30 93 1009.0
20260831111535 64 270 4.3 8.7 0.00 0.30 0.30 93 1008.9
20260831111033 64 281 4.3 11.3 0.00 0.30 0.30 93 1008.9
20260831110533 64 281 5.2 11.3 0.00 0.30 0.30 93 1008.8
20260831110032 64 263 5.2 11.3 0.00 0.30 0.30 93 1008.8
20260831105532 64 297 4.3 10.4 0.00 0.30 0.30 93 1008.7
20260831105031 64 285 5.2 10.4 0.00 0.30 0.30 93 1008.6
20260831104537 65 250 4.3 10.4 0.00 0.30 0.30 93 1008.6
20260831104029 65 269 5.2 10.4 0.00 0.30 0.30 93 1008.6
20260831103528 65 288 6.1 12.2 0.00 0.30 0.30 93 1008.5
20260831103027 65 275 5.2 13.0 0.00 0.30 0.30 93 1008.5
20260831102529 65 247 7.0 13.0 0.00 0.30 0.30 93 1008.5
20260831102026 65 315 5.2 16.5 0.00 0.30 0.30 93 1008.5
20260831101526 65 315 7.0 16.5 0.00 0.30 0.30 93 1008.4
20260831101025 65 282 6.1 13.9 0.00 0.30 0.30 94 1008.3
20260831100524 65 283 7.0 15.6 0.00 0.30 0.30 94 1008.4
20260831100023 65 273 7.8 15.6 0.00 0.30 0.30 94 1008.4
20260831095524 65 242 6.1 12.2 0.00 0.30 0.30 94 1008.3
20260831095021 66 269 7.0 13.0 0.00 0.30 0.30 94 1008.2
20260831094520 66 276 5.2 13.0 0.00 0.30 0.30 93 1008.0
20260831094020 66 263 7.0 11.3 0.00 0.30 0.30 93 1008.0
20260831093526 66 273 6.1 13.9 0.01 0.30 0.30 93 1007.9
20260831093021 66 268 7.0 13.9 0.01 0.30 0.30 93 1007.8
20260831092517 66 284 6.1 13.0 0.01 0.30 0.30 93 1007.6
20260831092018 66 279 6.1 13.9 0.01 0.30 0.30 93 1007.6
20260831091513 66 263 5.2 13.9 0.01 0.30 0.30 93 1007.5
20260831091012 66 279 5.2 12.2 0.01 0.30 0.30 93 1007.3
20260831090513 67 283 4.3 9.6 0.01 0.30 0.30 93 1007.3
20260831090011 67 336 4.3 9.6 0.01 0.30 0.30 93 1007.3
20260831085510 67 290 5.2 13.9 0.01 0.30 0.30 93 1007.2
20260831085009 67 294 5.2 13.9 0.01 0.30 0.30 93 1007.2
20260831084507 68 269 5.2 12.2 0.01 0.30 0.30 94 1007.2
20260831084006 68 268 7.0 13.0 0.01 0.30 0.30 93 1007.0
20260831083504 68 279 7.0 13.0 0.00 0.28 0.28 94 1007.0
20260831083003 69 269 6.1 13.0 0.00 0.28 0.28 93 1007.0
20260831082502 69 268 7.0 13.9 0.00 0.28 0.28 94 1007.0
20260831082001 69 269 7.0 13.9 0.00 0.28 0.28 94 1007.0
20260831081601 70 262 6.1 12.2 0.00 0.28 0.28 94 1006.9
20260831081058 70 259 4.3 12.2 0.00 0.28 0.28 94 1006.9
20260831080556 71 244 4.3 12.2 0.00 0.28 0.28 95 1007.0
20260831080110 71 273 4.3 10.4 0.00 0.28 0.28 95 1006.9
20260831075557 72 261 4.3 10.4 0.00 0.28 0.28 95 1006.8
20260831075054 72 280 1.7 5.2 0.00 0.28 0.28 95 1006.8
20260831074602 72 224 1.7 5.2 0.00 0.28 0.28 95 1006.8
20260831074054 72 208 1.7 4.3 0.00 0.28 0.28 95 1006.6
20260831073554 72 200 1.7 3.5 0.00 0.28 0.28 95 1006.4
20260831073053 72 207 0.0 1.7 0.00 0.28 0.28 95 1006.0
20260831072553 72 207 0.0 1.7 0.00 0.28 0.28 95 1006.1
20260831072052 72 208 0.0 2.6 0.00 0.28 0.28 95 1006.0
20260831071604 72 207 0.9 2.6 0.00 0.28 0.28 95 1005.9
20260831071052 73 207 0.0 3.5 0.00 0.28 0.28 95 1005.8
20260831070551 73 208 1.7 3.5 0.00 0.28 0.28 95 1006.3
20260831070052 73 209 0.9 2.6 0.00 0.28 0.28 95 1006.3
20260831065551 73 209 0.0 0.0 0.00 0.28 0.28 94 1006.3
20260831065051 73 209 0.0 2.6 0.00 0.28 0.28 94 1006.3
20260831064550 73 209 0.0 3.5 0.00 0.28 0.28 94 1006.4
20260831064050 73 208 0.9 4.3 0.00 0.28 0.28 94 1006.3
20260831063550 73 213 0.9 4.3 0.00 0.28 0.28 94 1006.3
20260831063049 73 245 0.0 4.3 0.00 0.28 0.28 94 1006.2
20260831062553 73 233 1.7 6.1 0.00 0.28 0.28 94 1006.3
20260831062049 73 225 2.6 7.8 0.15 0.28 0.28 94 1006.1
20260831061549 73 163 4.3 7.8 0.24 0.28 0.28 94 1006.3
20260831061049 73 196 2.6 8.7 0.24 0.28 0.28 94 1006.3
20260831060549 72 167 2.6 9.6 0.28 0.28 0.28 94 1006.2
20260831060100 72 205 0.9 6.1 0.28 0.28 0.28 94 1006.2
20260831055549 72 167 1.7 7.0 0.28 0.28 0.28 94 1006.3
20260831055048 72 173 0.9 7.0 0.28 0.28 0.28 94 1006.4
20260831054548 73 144 2.6 7.0 0.28 0.28 0.28 94 1006.3